Skip Page Navigation
NASA JPL Caltech
NASA Logo - Jet Propulsion Laboratory + View the NASA Portal
+ Near-Earth Object (NEO) Program
Search JPL
JPL Home Earth Solar System Stars & Galaxies Technology
JPL Solar System Dynamics
BODIES ORBITS EPHEMERIDES TOOLS PHYSICAL DATA DISCOVERY FAQ SITE MAP
JPL Small-Body Database Browser
Search: [ help ]  
9652 (1996 AF2)
Classification: Main-belt Asteroid          SPK-ID: 2009652
Ephemeris | Orbit Diagram | Orbital Elements | Physical Parameters | Discovery Circumstances ]

[ show orbit diagram ]
Orbital Elements at Epoch 2457000.5 (2014-Dec-09.0) TDB
Reference: JPL 10 (heliocentric ecliptic J2000)
 Element Value Uncertainty (1-sigma)   Units 
e .1679563773695917 6.0867e-08  
a 2.417543949904926 1.8588e-08 AU
q 2.011502025947121 1.4893e-07 AU
i 5.968141222455746 6.1326e-06 deg
node 319.024449916649 5.8914e-05 deg
peri 243.6053691098081 6.2252e-05 deg
M 302.3633726948978 2.6525e-05 deg
tp 2457220.314356059940
(2015-Jul-16.81435606)
0.00010247 JED
period 1372.966668619997
3.76
1.5834e-05
4.335e-08
d
yr
n .262205928394347 3.024e-09 deg/d
Q 2.823585873862732 2.1709e-08 AU
  Orbit Determination Parameters
   # obs. used (total)      1081  
   data-arc span      10287 days (28.16 yr)  
   first obs. used      1986-07-27  
   last obs. used      2014-09-25  
   planetary ephem.      DE431  
   SB-pert. ephem.      SB431-BIG16  
   condition code      0  
   fit RMS      .49152  
   data source      ORB  
   producer      Otto Matic  
   solution date      2014-Oct-09 14:15:47  

Additional Information
 Earth MOID = 1.01862 AU 
 T_jup = 3.489 
[ show covariance matrix ]

Ephemeris | Orbit Diagram | Orbital Elements | Physical Parameters | Discovery Circumstances ]

Physical Parameter Table
Parameter Symbol Value Units Sigma Reference Notes
absolute magnitude H 13.2 mag n/a MPO244270  

9652 (1996 AF2)          Discovered 1996-Jan-12 by Ueda, S., Kaneda, H. at Kushiro (399)
Reference: 19981110/Numbers.arcLast Updated: 2004-04-19

Alternate Designations
 1996 AF2 = 1986 OV = 1990 RV4 
Ephemeris | Orbit Diagram | Orbital Elements | Physical Parameters | Discovery Circumstances ]
ABOUT SSD CREDITS/AWARDS PRIVACY/COPYRIGHT GLOSSARY LINKS
FirstGov 2014-Oct-22 04:46 UT
(server date/time)  
NASA Home Page
Site Manager:   Donald K. Yeomans
Webmaster  Alan B. Chamberlin